{"data":{"norad_id":65084,"intl_designator":"2025-167G","name":"STARLINK-34601","alt_names":[],"object_type":"PAYLOAD","status":"ACTIVE","operator":null,"country":"US","launch_date":"2025-08-04","launch_site_code":"AFETR","launch_vehicle":null,"mission":null,"orbit_class":"UNKNOWN","rcs_meters":null,"size_class":null,"mass_kg":null,"dimensions":null,"purposes":["comms"],"wikipedia_slug":null,"has_3d_model":false,"image_url":null,"decayed_at":null,"tle_current":{"epoch":"2026-05-25T00:00:02.000160Z","epoch_age_seconds":71713,"freshness":"FRESH","line1":"1 65084U 25167G   26145.00002315  .00024601  00000+0  57339-3 0  9995","line2":"2 65084  53.1588  29.7584 0001136  75.6400  74.3720 15.42136603  5866","mean_motion":15.42136603,"eccentricity":0.0001136,"inclination_deg":53.1588,"raan_deg":29.7584,"arg_perigee_deg":75.64,"mean_anomaly_deg":74.372,"bstar":0.00057339,"rev_number":586,"period_min":93.376941912843,"perigee_km":439.03009499057,"apogee_km":440.57913132508,"semimajor_km":6817.9416131578,"source":"CELESTRAK","updated_at":"2026-05-25T13:38:20.683481Z"}}}